Regional Weather Roundup
Issued by NWS

Home | Current Version | Previous Version | Text Only | Print | Product List | Glossary Off
Versions: 1 2 3 4 5 6 7 8 9 10 11 12 13 14 15 16 17 18 19 20 21 22 23 24 25 26 27 28 29 30 31 32 33 34 35 36 37 38 39 40 41 42 43 44 45 46 47 48 49 50

827
ASUS43 KLMK 121210
RWRKY
KENTUCKY REGIONAL WEATHER ROUNDUP
NATIONAL WEATHER SERVICE LOUISVILLE KY
700 AM EST FRI FEB 12 2016

NOTE "FAIR" INDICATES FEW OR NO CLOUDS BELOW 12,000 FEET
WITH NO SIGNIFICANT WEATHER AND/OR OBSTRUCTIONS TO VISIBILITY.

KYZ001>023-026-027-061>063-070>075-121300-
WESTERN AND SOUTH CENTRAL KENTUCKY

CITY           SKY/WX    TMP DP  RH WIND       PRES   REMARKS
PADUCAH        CLOUDY    29  23  78 NE6       30.20R WCI  23
HENDERSON      CLOUDY    25  21  86 CALM      30.22R VSB 1
OWENSBORO      LGT SNOW  25  24  96 NW7       30.21S FOG     WCI  17
HOPKINSVILLE   CLOUDY    28  24  83 E5        30.17F WCI  23
BOWLING GREEN  LGT SNOW  27  25  92 CALM      30.19F FOG
GLASGOW        LGT SNOW  26  26 100 E3        30.17F
$$

KYZ024-025-028>034-038-045-046-053-121300-
NORTH CENTRAL KENTUCKY

CITY           SKY/WX    TMP DP  RH WIND       PRES   REMARKS
LOUISVILLE/SDF CLOUDY    28  12  51 CALM      30.20S
LOUISVILLE/LOU CLOUDY    27  13  55 CALM      30.20F
FORT KNOX      CLOUDY    26  14  60 E5        30.15F WCI  20
$$

KYZ035>037-039>044-047>052-055>060-089>105-121300-
NORTHEAST KENTUCKY

CITY           SKY/WX    TMP DP  RH WIND       PRES   REMARKS
LEXINGTON      CLOUDY    24  13  62 CALM      30.17S
COVINGTON      CLOUDY    20  10  65 SE5       30.17F WCI  13
FRANKFORT      CLOUDY    25  14  63 E3        30.17F
$$

KYZ054-064>069-076>088-106>120-121300-
SOUTHEAST KENTUCKY

CITY           SKY/WX    TMP DP  RH WIND       PRES   REMARKS
JACKSON        CLOUDY    21   9  59 SE3       30.14S
LONDON         MOCLDY    25  12  58 NW3       30.16R
SOMERSET       CLOUDY    27  14  59 CALM      30.20R
MIDDLESBORO    CLOUDY    28  21  74 CALM      30.16R
MONTICELLO     FLURRIES  27  18  69 CALM      30.20R
$$





USA.gov is the U.S. government's official web portal to all federal, state and local government web resources and services.